Content
SEND FEEDBACK

Daily
Averages
Monthly
Summary
United States of America

MASCOUTAH, ILLINOIS


Home > North America > United States > Illinois
Elevation: 124 meters     Latitude: 38 30N     Longitude: 089 50W

WEATHER
 
SELECT A DAY
Number of Records: 216,710;   Date Range: 1/1/95 - 7/29/14
 
SHARE

PRINT THIS DATA

[ ← Previous Day ]
WEATHER ALMANAC - 13 FEBRUARY, 2013
[ Next Day → ]
[ °F ]   °C
Weather ElementAverageHighLow
Temperature6.2 °C12.6 °C (2:55 pm)2.6 °C (6:55 am)
Dewpoint-1.3 °C0.6 °C (1:55 am)-4.8 °C (2:55 pm)
Humidity62.9 %86 % (4:55 am)30 % (2:55 pm)
Barometer1011.5 hPa1013.9 hPa (1:55 am)1009.8 hPa (2:55 pm)
Wind Speed5.3 km/h14.8 km/h (2:55 pm)
Weather ElementAverage
Visibility16.1 km
Wind DirectionENE (60.4 °)

Weather ElementTotal
Precipitation---
Heating Degree Days10.7 (Base 18.3)
Averaged from 23 records on 13 February, 2013
WEATHER CONDITIONS BREAKOUT
WIND DIRECTION BREAKOUT
WEATHER BY HOUR - 13 FEBRUARY, 2013
[ °F ]   °C
Local TimeTemperatureDewpointHumidityBarometerVisibilityWind DirectionWind SpeedGust SpeedPrecipitationEventsConditions
1:55 AM3.1 °C0.6 °C84 %1013.9 hPa16.1 kmNNE (30°)5.6 km/hClear
2:55 AM3 °C0.3 °C83 %1012.9 hPa16.1 kmCalmClear
3:55 AM2.9 °C-0.1 °C81 %1012.5 hPa16.1 kmCalmClear
4:55 AM2.8 °C0.6 °C86 %1011.9 hPa16.1 kmVariable5.6 km/hClear
5:55 AM2.8 °C0 °C82 %1011.9 hPa16.1 kmCalmClear
6:55 AM2.6 °C0.2 °C84 %1012.2 hPa16.1 kmCalmClear
7:55 AM3 °C0.3 °C83 %1012.9 hPa16.1 kmCalmScattered Clouds
8:55 AM3.8 °C0.3 °C78 %1013.2 hPa16.1 kmCalmScattered Clouds
9:55 AM5.8 °C-1 °C62 %1012.9 hPa16.1 kmVariable11.1 km/hClear
10:55 AM7.9 °C-3.2 °C46 %1012.2 hPa16.1 kmVariable7.4 km/hClear
11:55 AM9.1 °C-2 °C46 %1011.9 hPa16.1 kmVariable9.3 km/hClear
12:55 PM10.9 °C-2.1 °C41 %1010.8 hPa16.1 kmVariable9.3 km/hClear
1:55 PM11.6 °C-1.9 °C39 %1010.2 hPa16.1 kmWSW (240°)13 km/hClear
2:55 PM12.6 °C-4.8 °C30 %1009.8 hPa16.1 kmWNW (290°)14.8 km/hClear
3:55 PM12.3 °C-4.1 °C32 %1009.8 hPa16.1 kmVariable9.3 km/hClear
4:55 PM11.6 °C-4.4 °C33 %1009.8 hPa16.1 kmWest (280°)13 km/hClear
5:55 PM9.5 °C-3 °C42 %1010.2 hPa16.1 kmWest (270°)5.6 km/hClear
6:55 PM7 °C-2.9 °C50 %1010.8 hPa16.1 kmWest (280°)5.6 km/hClear
7:55 PM4.5 °C-1.2 °C67 %1011.2 hPa16.1 kmCalmClear
8:55 PM4.8 °C-1.2 °C65 %1011.9 hPa16.1 kmVariable5.6 km/hClear
9:55 PM3.9 °C-0.1 °C75 %1011.9 hPa16.1 kmVariable5.6 km/hClear
10:55 PM3.4 °C-0.2 °C77 %1011.9 hPa16.1 kmCalmClear
11:55 PM2.6 °C-0.3 °C81 %1011.9 hPa16.1 kmCalmClear
Hourly data recorded from KBLV, located 0 kilometers away from Mascoutah, Illinois







STORIES FROM OUR PARTNERS